EHI
0 0 0 0 0 0 0 0 0 0 0 1 4 12 21 27 33 42 50 54 55 53 50 49 49 45 36 29 26 23 22 22 20 17 17 17 15 11 8 6 4 4 4 4
0 0 0 0 0 0 0 0 0 0 0 0 4 13 23 30 36 43 49 52 54 55 53 50 48 44 37 30 26 24 23 21 20 18 17 16 15 12 9 8 6 6 6 6
0 0 0 0 0 0 0 0 0 0 0 1 6 15 25 33 39 45 49 51 53 54 54 52 47 41 37 33 28 24 22 19 18 17 15 13 12 12 12 11 9 8 8 7
0 0 0 0 0 0 0 0 0 0 1 3 8 17 27 33 38 45 49 51 52 53 52 50 44 39 36 33 28 23 19 18 17 16 12 10 9 10 11 12 11 9 8 8
0 0 0 0 0 0 0 0 0 1 3 6 10 16 25 31 37 43 47 48 50 51 49 44 41 40 37 31 25 20 18 17 15 12 9 8 7 8 9 10 10 9 8 7
0 0 0 0 0 0 0 1 3 6 9 12 15 18 25 32 38 42 44 46 47 47 45 42 43 44 40 32 23 18 17 14 11 7 6 6 7 8 8 7 7 7 6 6
0 0 1 1 1 1 4 8 13 15 17 20 24 28 32 35 38 39 39 41 42 44 44 43 43 44 41 32 23 17 14 10 7 4 4 5 6 7 7 6 4 4 4 4
0 0 1 2 4 7 12 19 24 26 26 26 31 36 36 37 38 37 33 33 35 39 41 40 38 36 34 27 20 15 10 6 3 2 2 2 3 5 5 4 3 3 3 3
1 1 1 3 7 13 19 25 29 30 29 28 30 32 31 31 32 31 28 27 29 32 33 32 29 27 24 19 15 11 6 2 0 0 0 0 1 2 2 2 2 2 3 3
2 2 2 3 8 15 20 24 25 26 25 24 25 23 21 20 22 22 22 22 24 25 26 25 22 21 18 13 10 7 4 1 0 0 0 0 1 1 1 1 1 1 1 2
2 3 4 5 8 12 17 19 19 18 18 17 17 16 13 13 15 17 18 19 21 21 20 18 17 16 13 10 7 4 1 0 0 0 0 0 0 0 0 1 0 0 0 1
2 3 5 5 6 9 12 14 14 13 12 12 11 10 10 10 13 14 14 16 18 17 15 13 13 11 9 6 4 1 0 0 0 0 0 0 0 0 0 0 0 0 0 0
4 4 5 4 5 7 9 10 11 10 8 7 6 7 8 9 10 11 11 12 13 12 10 8 8 7 5 3 2 1 0 0 0 0 0 0 0 0 0 0 0 0 0 0
2 4 5 4 4 5 6 7 8 7 5 3 4 5 8 8 7 7 8 8 8 7 6 4 3 2 1 1 1 1 0 0 0 0 0 0 0 0 0 0 0 0 0 0
1 2 4 3 3 3 3 4 5 4 3 3 3 4 5 6 4 3 3 5 5 4 2 1 0 0 0 0 1 1 0 0 0 0 0 0 0 0 0 0 0 0 0 0
0 1 1 1 1 1 1 1 1 1 1 2 2 2 3 2 1 1 1 2 3 2 1 1 1 1 0 0 0 0 0 0 0 0 0 0 0 0 0 0 0 0 0 0
0 0 1 0 0 0 0 0 0 0 0 1 1 1 1 1 1 2 3 3 4 3 2 2 2 1 0 0 0 0 0 0 0 0 0 0 0 0 0 0 0 0 0 0
0 0 0 0 0 0 0 0 0 0 0 0 0 0 0 0 1 3 4 5 5 4 2 1 1 0 0 0 0 0 0 0 0 0 0 0 0 0 0 0 0 0 0 0
0 0 0 0 0 0 0 0 0 0 0 0 0 0 0 0 1 2 3 3 3 2 1 0 0 0 0 0 0 0 0 0 0 0 0 0 0 0 0 0 0 0 0 0
0 0 0 0 0 0 1 1 2 1 1 0 0 0 0 0 0 1 1 1 1 0 0 0 0 0 0 0 0 0 0 0 0 0 0 0 0 0 0 0 0 0 0 0
0 0 0 0 0 0 1 2 2 2 1 0 0 0 0 0 0 0 0 0 0 0 0 0 0 0 0 0 0 0 0 0 0 0 0 0 0 0 0 0 0 0 0 0
0 0 0 0 0 0 0 1 1 1 0 0 0 0 0 0 0 0 0 0 0 0 0 0 0 0 0 0 0 0 0 0 0 0 0 0 0 0 0 0 0 0 0 0
0 0 0 0 1 1 1 1 0 0 0 0 0 0 0 0 0 0 0 0 0 0 0 0 0 0 0 0 0 0 0 0 0 0 0 0 0 0 0 0 0 0 0 0
0 0 0 1 2 2 2 2 1 0 0 0 0 0 0 0 0 0 0 0 0 0 0 0 0 0 0 0 0 0 0 0 0 0 0 0 0 0 0 0 0 0 0 0
1 1 0 1 3 3 3 3 2 0 0 0 0 0 0 0 0 0 0 0 0 0 0 0 0 0 0 0 0 0 0 0 0 0 0 0 0 0 0 0 0 0 0 0
2 2 2 2 2 2 2 2 1 0 0 0 0 0 0 0 0 0 0 0 0 0 0 0 0 0 0 0 0 0 0 0 0 0 0 0 0 0 0 0 0 0 0 0
2 2 3 2 2 1 1 1 0 0 0 0 0 0 0 0 0 0 0 0 0 0 0 0 0 0 0 0 0 0 0 0 0 0 0 0 0 0 0 0 0 0 0 0
Wind_Speed
11 5 7 12 14 15 16 15 13 10 10 8 4 4 5 7 9 10 11 11 11 10 10 9 9 8 7 7 6 6 6 5 5 4 3 2 2 2 2 1 1 1 1 1
12 10 10 11 12 13 15 14 13 11 9 2 1 3 6 8 9 10 11 11 11 10 10 9 9 8 8 7 6 6 5 5 5 4 4 3 3 3 2 2 1 1 1 1
11 10 11 14 12 12 12 11 12 11 6 1 3 4 6 7 8 9 10 10 10 10 10 9 9 8 8 7 7 6 5 4 4 4 4 3 3 3 3 2 2 2 2 2
8 9 14 6 4 9 11 10 9 6 2 1 1 2 3 5 7 8 8 9 9 9 9 9 8 8 8 8 7 6 5 5 4 4 4 3 3 4 3 3 3 3 3 4
8 12 10 5 4 6 9 8 6 6 3 2 3 5 5 4 5 7 7 8 8 8 9 9 9 9 9 8 7 6 5 5 4 4 4 4 4 4 3 3 4 4 4 4
9 11 11 6 5 2 6 7 2 2 3 4 5 6 4 6 6 6 7 8 8 9 9 9 9 9 9 8 7 7 6 5 5 4 4 4 5 4 4 4 4 5 5 5
11 11 6 5 3 5 9 1 3 1 2 4 3 3 6 7 7 7 8 9 9 9 9 9 9 9 9 8 7 6 6 6 5 5 5 6 5 5 5 5 5 5 6 6
10 12 6 4 3 3 4 5 3 1 1 2 4 6 8 8 9 9 9 10 10 9 9 8 8 9 9 8 7 7 7 7 6 6 5 5 6 5 5 5 6 5 5 6
4 1 5 2 2 4 4 3 3 1 1 4 6 7 8 9 9 9 9 9 9 10 10 8 7 8 9 8 8 8 7 7 7 7 6 5 6 6 5 4 4 4 4 5
3 2 2 1 2 2 3 2 2 0 2 5 7 8 8 8 8 9 9 9 9 10 10 8 7 8 8 8 8 8 8 7 6 6 7 7 5 5 5 4 4 4 4 4
5 2 2 3 3 4 3 2 2 3 4 6 8 9 9 8 8 8 8 8 8 8 9 9 8 8 8 7 8 8 8 7 7 7 7 8 8 7 6 7 5 4 4 4
3 1 1 2 3 3 2 3 4 5 6 7 8 9 9 8 8 8 8 8 8 9 9 9 9 9 8 7 7 8 7 7 6 6 6 7 8 9 15 12 14 14 12 8
2 1 2 1 1 2 2 4 5 5 7 8 8 9 9 9 8 8 9 9 9 9 9 9 9 8 7 7 7 8 8 7 6 6 6 6 6 7 8 10 14 15 14 12
2 2 2 1 1 2 3 5 6 7 7 8 8 8 9 9 9 8 9 8 9 9 9 9 9 8 7 7 7 8 9 8 7 6 6 6 6 6 6 7 7 8 9 11
4 4 3 2 2 4 4 5 6 7 8 8 8 8 9 10 9 8 8 8 9 9 9 9 9 8 7 7 8 8 8 7 6 7 7 7 6 6 7 8 7 7 7 7
4 4 4 5 5 5 5 6 6 6 7 7 8 8 9 10 9 9 8 8 9 9 8 8 9 8 7 8 9 7 7 9 7 7 7 7 6 7 7 7 7 6 6 6
6 6 6 6 6 6 5 5 6 6 7 7 8 9 10 10 10 9 8 8 8 9 9 8 9 8 8 8 9 8 8 9 8 7 7 6 6 6 6 6 6 6 6 5
6 5 5 5 5 5 5 6 6 7 7 8 9 9 9 9 10 10 9 10 10 10 9 9 9 9 9 8 7 7 8 7 7 7 7 7 6 6 6 6 7 7 7 6
5 5 4 4 5 5 6 6 6 7 8 8 9 9 9 9 10 10 10 10 10 10 9 9 9 9 10 9 7 7 8 8 8 7 7 7 6 6 5 6 6 6 5 5
5 4 5 6 6 6 7 7 7 7 7 8 9 9 10 10 11 11 10 9 7 8 10 9 9 9 9 8 5 7 8 8 8 7 7 6 6 6 5 5 5 5 4 4
5 5 6 7 7 7 8 8 8 8 8 9 9 9 10 10 10 10 10 9 8 9 10 8 7 7 7 7 5 6 7 7 7 7 6 6 6 5 5 5 5 4 4 4
5 6 6 7 7 7 7 8 8 9 9 9 9 10 11 11 10 9 8 8 9 7 7 7 7 7 6 6 6 6 7 7 6 6 6 5 5 5 5 5 4 4 4 3
5 6 7 8 8 8 8 8 9 9 10 10 10 10 10 9 8 8 8 7 8 7 6 7 9 9 5 4 5 6 6 6 5 5 5 5 5 4 4 5 4 3 3 3
6 7 8 8 9 9 9 9 8 8 9 9 9 9 9 8 7 6 8 9 8 7 6 9 10 7 5 4 5 6 5 5 5 5 5 5 4 4 4 4 3 3 3 3
7 8 9 9 9 8 10 10 11 10 10 8 9 8 7 6 7 7 8 10 9 8 9 9 8 5 5 4 5 5 4 4 3 4 4 4 4 4 4 3 3 3 3 3
7 7 7 7 7 8 8 8 8 7 8 7 7 6 6 6 8 8 8 10 11 8 8 7 7 6 4 4 5 4 4 5 4 3 3 3 3 3 3 3 3 3 2 2
8 8 7 7 7 7 8 8 8 8 7 8 8 7 7 8 8 8 9 8 8 7 6 6 6 5 5 4 5 4 4 4 3 3 3 3 2 2 3 4 3 3 3 3
Wind_Direction
248 241 212 210 209 210 223 237 246 240 244 253 246 212 182 171 167 167 166 166 164 161 154 155 154 154 152 148 146 147 149 146 143 143 145 148 138 133 137 161 184 181 188 208
227 225 228 229 221 216 224 235 242 251 250 272 226 168 170 174 174 174 171 168 164 158 155 157 155 155 151 149 147 148 149 143 140 143 142 135 128 123 122 121 110 99 92 91
217 207 217 222 218 216 217 224 233 236 239 194 198 185 180 179 180 176 170 166 163 160 158 157 156 154 153 148 144 143 142 138 138 140 133 129 128 121 113 106 97 89 81 78
215 195 222 208 201 226 227 228 234 250 265 239 215 165 163 178 176 168 164 161 160 158 154 152 148 145 142 137 139 140 139 135 135 129 120 116 110 101 97 95 92 88 78 75
221 214 213 175 181 212 220 217 225 236 227 184 146 155 140 143 158 161 156 150 150 152 148 142 140 137 134 133 134 131 127 125 121 118 112 107 100 94 91 93 90 86 81 79
222 230 219 177 144 194 233 210 167 234 215 184 193 217 137 124 136 139 136 135 138 137 135 133 134 136 134 131 128 125 120 115 112 112 112 106 99 97 94 92 89 85 78 71
222 228 216 84 113 193 219 157 53 342 210 196 207 16 99 119 123 125 126 129 131 130 127 126 128 131 129 123 118 115 115 112 106 106 106 102 97 93 96 95 90 85 83 74
222 231 205 82 188 224 15 9 5 27 131 143 107 105 115 116 119 122 125 127 129 125 119 118 125 126 121 115 111 110 109 106 101 98 98 101 99 93 93 98 99 95 91 83
246 274 61 74 23 12 346 333 339 360 85 134 132 125 119 117 120 120 122 122 124 123 118 114 116 120 119 115 116 113 110 106 103 99 93 94 97 97 94 88 89 93 93 88
237 170 94 58 33 6 347 328 328 77 136 143 133 127 122 120 119 119 120 122 123 123 117 110 107 107 109 113 116 115 112 108 105 101 97 86 75 71 73 71 81 86 88 89
230 212 188 114 48 28 29 42 84 107 122 129 130 126 123 119 116 117 120 121 121 120 117 113 109 105 107 112 116 115 113 109 104 98 94 85 71 53 59 52 42 63 77 78
239 130 265 70 36 24 49 75 97 112 114 116 124 125 123 119 118 121 119 119 118 118 117 116 113 108 106 109 117 120 115 111 108 108 107 108 103 86 59 63 58 56 54 65
298 337 358 8 3 21 72 97 105 112 116 115 114 117 118 117 118 120 118 120 121 122 121 119 115 110 109 115 120 120 121 119 118 117 118 118 118 114 105 81 68 60 57 62
230 228 226 215 107 100 108 115 112 111 113 113 115 118 119 118 117 117 118 119 120 121 120 118 114 110 114 119 121 121 121 116 120 120 121 119 116 113 112 112 104 89 71 69
227 237 232 209 160 138 133 131 126 120 116 115 118 121 122 122 120 117 117 119 120 120 119 117 113 111 118 121 121 122 123 123 120 119 120 118 117 114 111 109 107 108 110 100
229 215 206 197 183 169 162 158 148 136 128 122 120 118 118 118 117 118 121 127 127 122 120 117 113 117 123 124 121 115 107 107 119 123 122 122 122 119 117 117 116 116 113 115
217 211 204 199 192 182 174 165 152 145 137 130 125 125 124 122 119 118 117 116 115 115 116 116 116 119 121 124 124 121 120 120 126 126 120 118 117 116 118 120 116 111 102 81
231 229 219 205 192 180 166 155 148 146 140 135 133 134 133 131 128 125 123 118 114 111 111 115 117 119 118 119 119 121 124 127 123 115 114 114 115 120 122 119 120 118 118 121
208 210 208 199 187 175 161 153 149 144 141 142 140 134 130 129 128 128 128 128 125 120 116 115 119 124 120 119 121 122 121 120 117 114 113 120 126 121 123 125 124 123 124 126
192 185 184 179 166 160 155 150 147 144 143 141 135 133 133 132 133 132 131 124 116 117 125 129 132 124 125 129 139 125 123 122 122 123 128 132 127 128 129 127 125 124 121 119
176 172 170 161 152 150 152 149 144 143 143 141 139 141 138 136 136 137 134 121 113 119 125 131 131 128 128 131 150 127 125 126 128 131 135 136 135 135 131 128 126 125 126 125
163 161 156 148 144 145 146 144 145 144 142 139 138 140 139 139 138 132 121 117 126 136 144 141 132 118 125 147 137 126 126 129 132 135 136 140 142 141 138 137 136 135 134 132
152 149 146 145 146 142 139 142 146 144 141 139 140 142 143 141 141 138 130 129 139 157 152 125 117 125 151 161 126 126 127 131 135 139 140 142 142 143 144 148 147 148 150 156
141 138 138 139 140 139 137 134 130 128 127 126 128 133 135 133 128 122 120 125 131 147 128 116 130 146 184 148 133 134 138 143 146 144 143 145 148 150 151 156 159 161 163 174
132 132 133 136 134 130 127 124 120 120 120 118 121 126 128 127 127 126 128 132 137 141 125 129 143 170 183 141 139 141 144 134 131 140 145 150 153 152 157 163 168 174 180 184
127 127 127 128 127 127 128 126 124 124 124 125 126 126 122 121 123 126 129 134 135 132 131 138 150 178 163 143 141 140 133 137 155 160 136 148 152 151 155 168 185 193 196 199
122 121 121 120 122 124 125 127 128 129 130 130 128 130 131 131 131 133 136 138 140 139 138 144 151 155 148 146 143 144 147 151 154 153 157 168 170 177 173 188 203 206 218 215